Temperature
12 12 13 14 17 18 19 20 20 20 20 19 19 20 22 22 22 20 15 15 15 15 15 15 15 16 16 16 16 16 16 16 16 16 16 16 16 16 16 16 16 16 16 16 16 15 15 15 15
11 12 13 14 17 18 19 20 19 19 18 17 17 18 19 19 16 15 15 15 15 15 15 15 15 16 16 16 16 16 16 16 16 16 16 16 16 16 16 16 16 16 16 16 16 15 15 15 15
11 11 13 15 16 18 19 19 19 17 16 16 17 17 18 17 15 14 14 14 15 15 15 15 15 15 16 16 16 16 16 16 16 16 16 16 16 16 16 16 16 16 15 15 15 15 15 15 15
10 11 13 15 16 18 19 18 17 16 15 15 16 16 15 14 14 14 14 14 14 15 15 15 15 15 15 16 16 16 16 16 16 16 16 16 16 16 16 16 16 16 15 15 15 15 15 15 15
10 12 14 14 16 17 17 17 16 17 16 15 16 16 14 13 13 14 14 14 14 14 14 15 15 15 15 16 16 16 16 15 15 16 16 16 16 16 16 16 16 15 15 15 15 15 15 15 15
11 13 14 14 15 16 16 15 15 17 16 15 15 16 14 13 13 14 14 14 14 14 14 15 15 15 15 15 15 15 15 15 15 15 15 15 15 15 15 15 15 15 15 15 15 15 15 15 15
11 13 13 14 15 15 15 14 15 16 16 15 15 15 13 13 13 13 13 14 14 14 14 14 15 15 15 15 15 15 15 15 15 15 15 15 15 15 15 15 15 15 15 15 15 15 15 15 15
10 12 13 14 14 14 14 13 14 15 15 13 13 15 14 12 13 13 13 13 14 14 14 14 14 14 14 14 14 15 15 15 15 15 15 15 15 15 15 15 15 15 15 15 15 15 15 14 14
9 11 12 13 13 14 13 13 13 12 13 12 12 13 13 12 12 13 13 13 13 14 14 14 14 14 14 14 14 14 14 14 14 14 14 14 14 14 14 14 14 14 14 14 14 14 14 14 14
10 11 12 13 13 13 12 13 12 12 13 12 12 11 12 12 12 12 13 13 13 13 14 14 14 14 14 14 14 14 14 14 14 14 14 14 14 14 14 14 14 14 14 14 14 14 14 14 14
10 11 12 12 11 11 12 12 12 13 14 14 12 11 11 12 12 12 12 12 13 13 13 13 13 13 13 13 13 14 14 14 14 14 14 14 14 14 14 14 14 14 14 14 14 14 13 13 13
10 11 11 11 10 11 11 12 12 13 13 12 12 12 11 11 11 12 12 12 12 13 13 13 13 13 13 13 13 13 13 13 13 13 13 13 13 13 14 14 14 13 13 14 13 13 13 13 13
10 10 10 10 10 10 11 11 12 11 11 11 11 11 11 11 11 11 11 12 12 12 12 12 13 13 13 13 13 13 13 13 13 13 13 13 13 13 13 13 13 13 13 13 13 13 13 13 13
10 10 10 10 10 10 11 11 11 10 10 10 10 10 10 11 11 11 11 11 12 12 12 12 12 12 12 12 13 13 13 12 12 12 13 13 13 13 13 13 13 13 13 13 13 12 12 12 12
10 11 11 10 11 10 11 11 11 9 10 10 10 10 10 10 10 11 11 11 11 11 12 12 12 12 12 12 12 12 12 12 12 12 12 12 12 12 12 12 12 12 12 12 12 12 12 12 12
11 11 11 11 11 11 12 12 11 9 10 10 10 9 9 9 10 10 10 11 11 11 11 11 11 11 11 12 12 12 12 12 12 12 12 12 12 12 12 12 12 12 12 12 12 12 11 11 11
11 11 11 11 11 11 12 12 10 9 10 10 9 9 9 9 9 10 10 11 11 11 11 11 11 11 11 11 11 11 11 11 11 11 11 11 11 11 11 11 11 12 12 11 11 11 11 11 11
11 11 11 11 11 11 12 11 10 9 10 10 10 9 9 9 9 9 10 10 10 11 11 11 11 11 11 10 10 10 11 11 11 11 11 11 11 11 11 11 11 11 11 11 11 11 11 11 10
11 11 11 11 10 11 11 11 11 10 10 10 10 9 9 9 9 9 10 10 10 10 10 10 10 10 10 10 10 10 10 10 10 10 10 10 10 10 10 10 11 11 10 10 10 10 10 10 10
11 11 11 11 10 11 11 11 11 11 10 10 10 10 9 9 9 9 10 10 10 10 10 10 10 10 10 10 10 10 10 10 10 10 10 10 10 10 10 10 10 10 10 10 10 10 10 9 9
10 11 11 10 10 11 11 12 12 11 10 10 9 9 9 9 9 9 9 10 10 10 10 10 9 10 10 9 9 9 9 9 9 9 10 9 10 10 10 10 9 9 9 9 9 9 9 9 8
11 10 10 10 11 11 11 12 13 12 11 11 10 10 9 9 9 9 9 9 10 10 10 9 9 9 9 9 9 9 9 9 9 9 9 9 9 9 9 9 9 9 9 9 9 9 9 8 8
10 9 10 10 11 12 12 13 13 12 12 12 11 10 9 9 9 9 9 9 10 10 9 9 9 9 9 9 9 9 9 9 9 9 9 9 9 9 9 9 8 8 8 8 8 8 8 8 8
9 10 10 10 12 12 11 12 13 12 12 12 11 10 9 9 9 9 9 9 9 9 9 9 9 9 9 9 9 9 9 9 8 8 8 8 8 8 8 8 8 8 8 8 8 8 7 7 7
10 11 11 12 12 12 10 11 12 12 11 11 11 10 9 9 9 9 9 9 9 9 9 9 9 9 9 9 9 9 9 8 8 8 8 8 8 8 8 8 8 7 7 7 7 7 7 7 7
10 11 11 12 12 12 10 11 12 11 10 9 9 9 9 9 9 9 9 9 9 9 9 9 9 9 9 9 8 8 8 8 8 8 8 8 8 7 7 7 7 7 7 7 7 7 6 6 6
10 10 10 11 10 11 12 12 12 11 10 10 9 9 9 8 9 9 9 9 9 9 9 9 9 9 8 8 8 8 8 8 8 8 7 7 7 7 7 7 7 7 7 6 6 6 6 6 6
9 9 10 10 11 12 12 12 12 11 11 11 10 10 9 8 9 9 9 9 9 9 9 9 9 8 8 8 8 8 8 7 7 7 7 7 7 7 7 7 7 6 6 6 6 6 6 6 5
9 9 9 10 10 12 12 13 12 11 10 10 10 9 8 8 8 9 9 9 9 9 9 9 8 8 8 8 8 8 7 7 7 7 7 7 7 7 6 6 6 6 6 6 5 5 5 5 5
8 9 10 10 10 10 11 12 11 10 9 9 9 8 8 8 8 9 9 9 9 9 9 8 8 8 8 8 8 7 7 7 7 7 7 6 6 6 6 6 6 6 5 5 5 5 5 4 4
Wind_Speed
7 6 3 3 6 8 18 14 9 8 8 5 4 6 8 7 5 2 4 7 10 11 12 13 12 13 13 13 12 12 12 12 11 11 10 9 9 9 8 8 8 8 8 8 8 8 8 7 8
5 4 2 4 9 15 16 14 11 9 5 4 3 5 6 5 1 4 4 7 10 11 12 13 13 14 13 13 12 12 12 11 11 10 10 9 9 8 8 8 8 7 7 7 7 7 7 6 6
3 2 3 5 11 18 15 10 9 5 4 4 4 3 3 3 3 3 4 8 10 10 11 13 13 14 14 13 13 12 12 11 11 10 10 9 8 8 7 8 7 7 7 7 7 7 6 6 5
1 2 3 8 17 17 12 6 6 7 5 3 4 3 2 2 1 2 6 9 10 10 11 13 13 14 13 13 12 12 11 11 10 10 9 9 8 7 7 7 7 6 7 6 6 6 6 5 4
1 3 7 11 17 13 10 6 6 8 7 5 5 4 3 1 2 5 7 9 10 10 10 13 13 13 13 12 11 11 11 11 10 10 9 9 8 8 7 6 6 6 6 5 5 5 4 4 3
3 4 8 13 15 11 9 6 7 8 7 5 5 5 3 2 4 6 7 8 9 10 10 12 13 13 13 12 12 11 11 11 10 10 9 9 8 7 7 6 6 6 5 5 4 4 3 3 2
3 5 10 13 11 10 7 6 8 8 7 6 5 6 4 4 5 6 7 8 9 10 10 10 11 11 12 12 11 11 10 10 10 9 9 9 8 7 6 6 5 5 5 5 4 3 2 2 2
2 3 9 11 11 9 5 5 7 7 6 3 4 6 6 6 6 7 8 8 9 9 9 9 9 9 9 10 11 11 10 10 10 9 9 8 8 7 6 6 6 5 5 5 4 4 3 2 1
2 5 9 10 9 7 4 5 3 3 3 3 3 2 3 9 8 9 9 8 8 8 7 7 8 8 8 8 9 9 9 9 8 8 8 6 5 5 5 7 6 6 6 5 5 4 3 1 1
3 6 10 7 7 6 5 5 4 4 5 5 4 2 6 9 10 10 10 10 9 8 7 6 7 7 7 7 7 6 6 6 6 5 5 4 4 4 4 6 6 5 5 4 4 3 1 1 1
3 6 6 5 6 6 5 4 5 7 6 5 6 8 10 10 10 10 9 9 8 8 7 6 6 6 6 5 5 5 5 4 5 5 4 3 4 3 3 2 2 2 2 2 2 1 1 2 2
3 5 5 4 3 4 5 4 3 5 4 2 5 9 12 12 10 10 9 8 7 7 7 5 5 6 5 5 5 5 4 4 4 4 4 3 3 3 3 2 2 2 2 2 2 2 2 2 2
5 4 3 4 2 2 2 3 3 2 3 1 6 10 11 11 9 7 8 7 7 7 6 5 5 5 5 5 4 5 4 4 4 4 4 4 3 3 2 2 2 3 3 2 2 2 2 2 2
3 2 1 3 2 1 2 1 1 2 2 5 9 9 9 9 9 8 7 7 7 6 6 5 5 5 5 5 4 5 5 5 5 5 4 4 4 3 3 3 3 3 3 2 2 2 2 2 2
2 1 1 2 1 1 2 1 1 2 3 7 8 8 8 8 7 7 6 6 6 6 6 6 5 5 5 5 5 5 5 5 5 5 5 4 4 3 3 3 3 3 3 3 2 2 2 2 2
2 2 2 2 2 1 4 3 1 1 4 7 8 8 8 7 6 5 5 5 6 6 6 6 5 5 4 4 5 5 5 5 5 5 5 5 5 4 3 3 3 4 3 3 2 2 1 1 2
1 2 2 1 3 1 2 2 2 1 5 7 7 7 7 6 5 4 4 4 5 5 5 5 5 5 4 4 4 5 5 5 5 5 5 5 5 4 3 3 3 4 3 3 2 2 2 2 2
2 2 2 1 3 1 2 2 2 3 5 6 6 6 6 6 5 4 3 4 4 5 5 5 5 5 4 3 3 3 4 4 4 5 5 5 5 4 4 3 4 4 3 3 3 2 2 2 2
1 3 2 2 3 0 3 3 3 4 4 5 5 6 6 5 4 4 4 4 4 5 5 4 4 4 3 2 1 1 2 2 2 3 5 4 4 4 4 3 3 3 3 3 3 3 2 2 2
2 3 3 3 3 1 3 3 2 2 3 4 5 5 5 5 5 4 4 4 4 4 4 4 3 3 3 1 1 1 1 1 2 2 3 3 4 4 4 3 2 3 2 2 3 3 2 2 2
3 1 1 1 1 3 1 1 2 2 2 2 3 4 5 6 6 5 5 5 4 4 4 3 3 3 3 2 2 2 1 1 1 1 1 2 3 3 3 3 3 2 2 2 2 3 2 2 2
2 3 1 1 2 1 1 2 3 2 3 3 3 4 5 5 5 5 5 5 5 4 4 4 3 3 3 3 3 3 2 1 1 0 0 1 2 2 2 2 2 2 2 2 2 2 2 2 2
2 2 1 1 1 1 1 1 2 2 3 4 4 4 4 4 5 6 6 6 5 5 4 4 4 3 3 3 3 3 2 1 1 1 1 0 0 1 1 1 1 1 2 2 2 2 2 2 2
1 1 1 0 1 0 1 1 2 2 4 4 3 3 4 4 5 5 5 6 6 5 5 4 4 3 3 3 3 3 3 3 2 2 2 1 1 1 1 1 1 1 1 2 2 2 2 2 2
2 1 0 0 0 1 1 2 3 1 1 3 3 3 3 3 4 5 6 6 6 6 5 5 5 4 4 4 4 4 4 4 4 3 3 2 2 2 2 2 2 2 2 2 2 2 2 2 2
2 2 1 1 1 1 0 2 1 1 1 2 2 2 2 3 4 5 5 5 6 6 6 5 5 5 5 5 5 5 5 4 4 4 4 4 3 3 3 3 3 3 3 2 2 2 2 2 2
1 2 2 1 1 2 2 2 2 1 1 2 2 2 2 2 3 4 4 5 5 5 6 6 6 5 5 5 5 5 5 5 5 5 5 4 4 3 4 4 4 3 3 3 3 3 3 3 3
3 1 1 1 1 2 2 3 2 3 3 2 2 2 1 1 2 3 3 4 4 4 4 5 5 5 5 5 5 5 5 6 5 5 6 5 5 4 5 4 4 4 4 4 4 4 3 4 3
1 1 0 1 1 2 2 2 0 2 3 3 3 1 1 1 2 2 2 2 3 3 4 4 5 5 5 5 5 5 5 5 6 6 6 6 5 5 5 5 5 5 5 5 5 5 4 4 4
2 2 2 2 2 2 3 3 1 2 2 3 3 2 1 1 1 2 2 2 2 2 2 3 3 4 4 4 5 5 5 5 6 6 6 6 6 6 6 6 6 6 6 5 6 6 5 6 6
Wind_Direction
323 313 298 239 210 221 231 223 220 211 206 205 208 212 210 200 199 145 89 145 145 148 151 151 146 140 137 133 130 127 126 124 121 120 117 113 107 109 111 111 108 104 100 99 99 100 101 94 90
320 305 248 219 220 221 226 221 214 216 203 187 202 204 197 196 85 94 123 142 146 146 149 150 143 139 137 134 131 128 127 125 123 120 116 111 105 103 112 112 109 106 101 98 98 96 96 97 94
307 287 228 211 223 227 224 212 213 199 189 198 189 202 198 169 126 118 127 145 144 141 142 139 139 136 133 132 131 129 127 125 122 119 115 111 107 102 106 110 108 107 103 100 98 96 92 94 96
250 204 217 225 226 230 237 214 205 187 198 216 197 167 141 70 83 115 139 148 142 138 136 134 135 131 129 129 128 127 126 124 121 119 115 111 106 102 97 102 103 105 103 101 99 97 93 93 95
224 211 214 225 231 233 241 236 205 205 198 203 209 187 155 95 90 123 139 141 136 130 127 130 126 125 123 121 123 124 122 121 117 115 111 107 102 97 89 94 96 98 104 104 103 100 97 95 90
202 214 221 226 229 233 234 234 224 226 213 206 200 186 160 125 129 131 133 132 128 126 118 118 115 117 117 116 116 118 116 114 113 110 106 102 97 93 87 87 93 93 94 99 103 105 102 99 92
214 214 227 231 233 235 234 231 229 225 217 208 194 181 163 154 130 133 129 125 120 117 117 118 119 121 117 114 112 111 111 111 111 106 102 98 94 90 85 82 90 89 85 82 79 82 90 90 79
240 228 229 228 230 234 229 231 235 231 225 199 202 193 182 163 139 134 127 121 118 116 114 114 118 120 123 119 109 106 104 105 108 103 99 98 96 90 83 79 80 80 76 74 68 64 59 52 52
231 225 228 225 230 234 228 233 230 244 197 209 220 245 174 147 146 140 134 126 121 116 113 115 113 111 114 116 112 109 104 99 106 107 104 108 100 93 89 71 74 77 74 70 62 57 53 34 115
216 224 232 241 241 242 240 244 215 197 207 210 198 160 144 151 154 152 150 144 136 125 115 117 114 111 111 111 112 108 106 102 99 105 108 100 90 78 77 85 75 75 74 77 60 50 56 300 304
218 231 246 263 259 248 238 241 215 210 214 214 194 167 155 156 158 156 150 147 137 126 112 105 111 107 106 103 103 98 98 96 90 85 82 86 86 79 68 74 77 71 57 47 48 13 5 339 337
222 247 266 286 285 249 233 225 218 220 237 261 186 163 158 161 158 155 149 142 132 122 112 103 103 106 102 100 97 95 89 85 80 78 69 68 68 63 53 51 44 31 23 13 1 339 345 330 322
226 257 292 319 297 256 224 215 220 255 335 142 145 151 153 151 144 139 137 131 123 117 111 102 100 104 105 99 94 90 83 79 77 70 64 59 59 52 40 39 39 27 14 4 351 338 334 319 320
228 249 334 337 299 230 149 180 202 5 35 124 133 140 144 142 139 134 136 131 123 117 112 102 92 92 100 99 97 86 80 74 69 65 57 54 53 47 40 36 28 21 10 360 349 350 334 327 328
209 201 99 4 320 205 190 119 359 9 113 123 127 130 127 122 125 130 135 131 123 117 112 104 94 87 90 95 93 86 81 77 67 59 52 49 47 42 35 29 26 16 2 356 354 358 343 339 334
192 167 151 40 16 287 211 181 60 34 139 131 130 127 121 116 119 117 121 118 114 113 111 102 99 91 83 84 86 85 78 75 68 63 52 44 40 35 35 32 28 11 1 360 357 349 342 337 333
115 157 167 73 27 17 202 172 101 118 142 133 131 128 126 123 121 119 120 118 117 118 116 108 100 92 83 80 84 84 78 73 68 61 55 44 38 33 38 33 25 15 11 9 359 346 338 334 335
146 149 139 90 25 65 141 128 118 134 141 136 135 134 137 140 141 135 127 119 116 115 114 113 108 100 96 94 95 91 81 72 67 59 51 43 38 32 36 37 26 21 20 14 0 347 343 335 329
132 133 99 51 12 79 148 135 134 139 144 146 148 147 151 149 146 140 140 136 128 125 122 122 118 114 111 107 96 92 88 79 71 60 50 40 34 31 34 33 32 26 23 10 360 350 339 345 336
83 98 72 55 28 79 114 93 107 160 174 169 164 166 166 161 161 156 152 150 149 143 139 131 130 131 127 116 100 64 90 95 70 61 52 34 32 29 30 19 22 22 11 11 5 356 336 341 356
45 63 76 72 59 83 120 124 138 134 152 166 179 181 179 176 175 170 172 172 166 160 159 152 161 162 153 154 150 144 141 155 152 93 58 31 26 27 27 23 12 11 1 360 1 354 341 329 343
24 2 6 94 133 92 334 181 185 160 168 179 187 190 190 184 182 179 178 179 177 171 164 168 174 174 169 173 186 195 200 198 174 123 75 40 33 22 17 15 6 360 354 352 349 343 325 308 301
355 351 36 87 106 111 36 194 177 148 202 204 195 195 198 194 192 187 185 184 180 173 169 172 171 172 179 189 192 206 213 205 181 199 232 297 359 358 354 344 335 336 344 336 323 317 315 295 288
308 148 102 104 237 232 351 254 201 190 216 204 195 201 204 205 200 195 185 180 177 173 174 176 178 182 187 193 202 212 218 219 220 228 240 254 259 264 272 276 287 293 305 312 309 299 288 278 272
359 340 36 115 271 281 26 257 246 222 235 224 212 213 214 207 200 195 189 188 185 183 184 187 191 195 199 206 213 217 222 226 233 242 245 252 253 253 255 255 261 269 274 277 281 283 283 270 262
3 358 6 326 281 311 223 246 277 354 282 250 231 218 208 207 199 196 195 194 194 195 196 198 205 210 209 214 221 225 226 231 238 242 248 253 256 256 255 250 253 256 259 258 255 259 265 269 261
5 65 6 30 341 278 263 274 280 185 191 184 182 181 188 198 199 197 194 196 200 202 205 207 212 218 218 222 226 229 230 233 239 243 245 250 251 252 246 244 247 249 251 253 252 248 246 254 259
8 107 181 248 297 282 280 256 232 198 191 178 175 177 186 179 182 188 190 196 203 209 209 210 217 223 225 226 227 231 233 236 241 243 243 246 250 248 246 242 242 243 243 243 245 249 247 249 252
108 134 123 148 297 275 277 265 191 223 216 208 202 205 219 189 175 173 177 186 192 196 200 207 215 223 225 226 229 233 235 235 238 242 245 246 247 245 244 242 239 239 239 239 240 244 246 247 251
270 243 212 254 243 249 272 274 88 233 252 236 230 230 226 204 189 178 175 175 183 197 208 218 224 230 234 232 232 235 237 235 238 242 245 244 245 243 240 239 239 239 238 238 240 244 244 245 248
Height
1516 1517 1518 1520 1519 1513 1503 1499 1501 1504 1506 1508 1509 1508 1506 1507 1510 1515 1515 1514 1517 1520 1523 1525 1528 1530 1532 1533 1534 1535 1536 1537 1537 1538 1538 1539 1539 1539 1540 1540 1540 1540 1541 1541 1541 1541 1541 1540 1540
1516 1517 1520 1519 1511 1505 1498 1497 1502 1504 1507 1510 1510 1510 1508 1509 1512 1513 1512 1514 1517 1520 1523 1525 1528 1530 1532 1533 1534 1535 1536 1537 1538 1538 1538 1539 1539 1540 1540 1540 1540 1541 1541 1541 1541 1541 1541 1541 1541
1515 1516 1519 1514 1506 1497 1494 1497 1502 1507 1509 1509 1509 1510 1510 1511 1512 1512 1513 1515 1518 1520 1523 1525 1527 1530 1531 1533 1534 1536 1536 1537 1538 1538 1539 1539 1539 1539 1540 1540 1540 1541 1541 1541 1541 1541 1541 1541 1540
1516 1518 1518 1512 1502 1496 1496 1500 1504 1507 1509 1509 1509 1509 1511 1511 1511 1512 1513 1515 1518 1521 1523 1525 1528 1530 1531 1533 1534 1535 1536 1537 1538 1538 1539 1539 1539 1539 1540 1540 1540 1540 1540 1540 1540 1541 1541 1540 1540
1515 1516 1513 1507 1500 1499 1501 1503 1505 1505 1506 1508 1508 1507 1510 1510 1510 1511 1513 1516 1518 1521 1523 1525 1528 1530 1531 1533 1534 1536 1536 1537 1538 1538 1539 1539 1539 1539 1539 1539 1540 1540 1540 1540 1540 1540 1540 1540 1540
1516 1513 1508 1503 1499 1501 1503 1505 1505 1504 1505 1507 1508 1507 1509 1510 1510 1512 1514 1516 1519 1521 1523 1525 1527 1530 1531 1533 1534 1536 1536 1537 1538 1538 1539 1539 1539 1539 1539 1539 1539 1539 1539 1540 1539 1539 1539 1539 1539
1514 1510 1504 1501 1500 1501 1503 1505 1505 1503 1504 1505 1507 1507 1508 1509 1510 1512 1514 1516 1519 1521 1523 1525 1527 1530 1531 1533 1534 1535 1536 1537 1538 1538 1539 1539 1539 1539 1539 1539 1539 1539 1539 1539 1539 1539 1539 1538 1538
1512 1511 1505 1502 1501 1501 1504 1505 1504 1504 1503 1505 1506 1506 1507 1508 1509 1512 1514 1516 1519 1521 1523 1525 1527 1529 1531 1533 1534 1535 1536 1537 1537 1538 1538 1539 1538 1538 1538 1538 1538 1538 1538 1538 1538 1538 1538 1537 1537
1512 1511 1504 1501 1501 1501 1504 1504 1504 1504 1504 1504 1505 1505 1505 1506 1509 1512 1514 1516 1518 1521 1523 1525 1527 1529 1531 1532 1533 1535 1536 1536 1537 1537 1538 1538 1538 1538 1537 1537 1537 1537 1537 1537 1537 1537 1536 1536 1536
1511 1507 1502 1502 1503 1502 1503 1502 1503 1503 1502 1503 1503 1504 1504 1506 1508 1510 1513 1515 1517 1520 1522 1525 1527 1528 1530 1532 1533 1534 1535 1535 1536 1537 1537 1538 1537 1537 1537 1536 1537 1537 1536 1536 1536 1536 1535 1535 1535
1509 1506 1504 1504 1504 1503 1502 1502 1502 1501 1499 1500 1501 1502 1504 1505 1508 1510 1512 1515 1517 1520 1522 1524 1526 1528 1530 1531 1532 1533 1534 1535 1535 1536 1536 1537 1537 1536 1536 1536 1536 1536 1535 1535 1535 1534 1534 1534 1533
1509 1507 1506 1505 1504 1503 1502 1501 1501 1500 1500 1500 1501 1501 1503 1505 1507 1510 1512 1515 1517 1520 1522 1524 1526 1528 1529 1530 1531 1532 1533 1534 1534 1535 1535 1535 1536 1535 1535 1535 1535 1534 1534 1534 1533 1533 1533 1532 1532
1507 1506 1506 1505 1504 1503 1502 1501 1501 1500 1500 1499 1500 1501 1503 1505 1508 1511 1513 1515 1517 1520 1522 1524 1526 1527 1529 1530 1531 1531 1532 1533 1533 1534 1534 1534 1534 1534 1534 1534 1533 1533 1533 1532 1532 1531 1531 1531 1530
1506 1506 1505 1504 1503 1503 1502 1502 1502 1501 1500 1500 1501 1502 1504 1506 1508 1511 1514 1516 1518 1520 1522 1524 1525 1527 1528 1529 1530 1530 1531 1531 1532 1533 1533 1533 1533 1533 1533 1533 1532 1532 1531 1531 1530 1530 1529 1529 1528
1506 1505 1504 1504 1503 1503 1502 1502 1502 1502 1502 1501 1502 1504 1506 1508 1510 1512 1514 1516 1518 1520 1522 1524 1525 1526 1527 1528 1529 1530 1530 1530 1531 1531 1532 1532 1532 1532 1532 1531 1531 1530 1530 1529 1529 1528 1528 1527 1527
1505 1502 1502 1503 1503 1502 1503 1501 1503 1503 1503 1503 1504 1506 1507 1509 1511 1513 1515 1516 1518 1520 1522 1523 1525 1526 1526 1527 1528 1529 1529 1530 1530 1530 1531 1531 1531 1531 1531 1530 1529 1529 1528 1528 1527 1527 1526 1526 1525
1502 1501 1501 1503 1503 1502 1501 1500 1504 1504 1504 1504 1506 1507 1508 1511 1512 1514 1516 1517 1519 1520 1522 1523 1524 1525 1526 1526 1527 1528 1528 1529 1529 1529 1529 1529 1529 1529 1529 1529 1528 1527 1527 1526 1526 1525 1525 1524 1523
1503 1500 1501 1502 1504 1503 1501 1502 1504 1505 1505 1505 1507 1509 1510 1512 1514 1515 1516 1517 1519 1520 1522 1523 1524 1525 1526 1527 1527 1527 1528 1528 1528 1528 1528 1528 1528 1528 1528 1527 1526 1526 1525 1525 1524 1523 1523 1522 1521
1504 1502 1501 1504 1506 1504 1503 1503 1503 1505 1506 1507 1508 1509 1511 1512 1514 1515 1517 1518 1519 1520 1522 1523 1524 1525 1525 1526 1527 1527 1527 1528 1527 1527 1527 1527 1527 1527 1526 1526 1525 1524 1524 1523 1522 1522 1521 1520 1519
1505 1503 1503 1505 1506 1505 1504 1503 1504 1506 1506 1507 1508 1510 1511 1512 1514 1515 1516 1517 1519 1520 1521 1522 1523 1524 1525 1526 1527 1527 1527 1527 1527 1526 1526 1526 1526 1525 1524 1524 1523 1523 1522 1521 1520 1520 1519 1518 1517
1507 1506 1505 1505 1506 1505 1504 1502 1504 1506 1507 1508 1509 1510 1511 1512 1513 1515 1516 1517 1518 1519 1521 1521 1522 1523 1524 1525 1525 1526 1526 1526 1526 1525 1525 1525 1524 1524 1523 1522 1522 1521 1521 1520 1519 1518 1517 1516 1516
1507 1510 1509 1507 1503 1504 1505 1501 1499 1503 1505 1506 1508 1509 1510 1511 1513 1514 1515 1516 1517 1519 1520 1521 1522 1523 1523 1524 1524 1525 1525 1525 1525 1524 1523 1523 1522 1521 1521 1520 1520 1519 1518 1518 1517 1516 1515 1515 1514
1511 1513 1510 1507 1505 1504 1504 1500 1497 1503 1502 1503 1506 1508 1509 1510 1512 1513 1514 1515 1517 1518 1519 1520 1521 1522 1522 1523 1523 1523 1524 1523 1523 1522 1521 1521 1520 1520 1519 1518 1518 1517 1516 1515 1515 1514 1513 1512 1512
1514 1512 1511 1508 1505 1506 1508 1504 1498 1499 1501 1502 1504 1506 1507 1509 1510 1511 1513 1514 1516 1517 1518 1519 1520 1521 1521 1521 1521 1522 1522 1521 1521 1521 1520 1519 1518 1518 1517 1516 1516 1515 1514 1513 1512 1511 1510 1510 1509
1512 1508 1508 1506 1506 1504 1512 1508 1501 1499 1502 1503 1504 1505 1506 1507 1508 1509 1511 1512 1514 1515 1517 1518 1518 1519 1519 1519 1520 1520 1520 1519 1519 1519 1518 1517 1517 1516 1515 1514 1513 1512 1511 1511 1510 1509 1508 1507 1506
1514 1511 1511 1508 1505 1501 1510 1505 1499 1501 1503 1503 1504 1504 1505 1505 1506 1507 1509 1510 1512 1513 1515 1516 1516 1517 1517 1517 1517 1517 1517 1517 1516 1516 1515 1515 1514 1514 1513 1512 1511 1510 1509 1508 1507 1506 1505 1504 1503
1513 1514 1517 1513 1515 1509 1501 1501 1498 1501 1502 1503 1503 1504 1504 1504 1504 1505 1507 1508 1510 1511 1512 1513 1514 1514 1514 1514 1514 1514 1514 1514 1513 1513 1513 1512 1512 1511 1510 1509 1508 1507 1506 1506 1505 1504 1502 1501 1501
1520 1518 1516 1513 1510 1503 1499 1500 1496 1498 1499 1501 1502 1503 1503 1503 1503 1504 1505 1506 1508 1509 1510 1511 1511 1511 1511 1511 1511 1511 1511 1511 1510 1510 1510 1509 1509 1508 1507 1506 1505 1504 1503 1502 1501 1500 1499 1498 1497
1520 1520 1517 1515 1513 1507 1501 1496 1496 1497 1499 1500 1501 1502 1502 1502 1503 1503 1504 1505 1506 1507 1507 1508 1508 1508 1508 1508 1508 1508 1508 1508 1507 1507 1506 1506 1505 1504 1503 1503 1502 1501 1500 1499 1498 1497 1496 1495 1494
1521 1518 1517 1513 1514 1514 1506 1501 1498 1499 1500 1501 1501 1502 1502 1502 1502 1502 1503 1503 1504 1505 1505 1505 1505 1505 1505 1505 1505 1505 1504 1504 1503 1503 1503 1502 1501 1501 1500 1499 1498 1497 1496 1495 1494 1493 1492 1491 1490